This is the latest recevied weather packets stored in our database for station/object E25WRM. If no packets are shown the sender has not sent any weather packets the latest 1 day(s).
| Time | Temp. | Humidity | Pressure | Rain* | Wind** | Luminosity | Snow |
|---|---|---|---|---|---|---|---|
| 1778046559 | 37.22° C | 47% | 1003 hPa | - | - | 0 W/m² | - |
| 1778045649 | 37.78° C | 48% | 1003 hPa | - | - | 0 W/m² | - |
| 1778044739 | 37.78° C | 48% | 1003 hPa | - | - | 0 W/m² | - |
| 1778043829 | 37.78° C | 49% | 1003 hPa | - | - | 0 W/m² | - |
| 1778042919 | 37.22° C | 49% | 1004 hPa | - | - | 0 W/m² | - |
| 1778042009 | 36.67° C | 50% | 1004 hPa | - | - | 0 W/m² | - |
| 1778041099 | 36.67° C | 51% | 1004 hPa | - | - | 0 W/m² | - |
| 1778040189 | 36.67° C | 50% | 1004 hPa | - | - | 0 W/m² | - |
| 1778039279 | 36.67° C | 53% | 1004 hPa | - | - | 0 W/m² | - |
| 1778038369 | 36.11° C | 53% | 1004 hPa | - | - | 0 W/m² | - |
| 1778037459 | 36.11° C | 53% | 1005 hPa | - | - | 0 W/m² | - |
| 1778036549 | 35.56° C | 54% | 1005 hPa | - | - | 0 W/m² | - |
| 1778035639 | 35° C | 51% | 1005 hPa | - | - | 0 W/m² | - |
| 1778034729 | 35° C | 49% | 1005 hPa | - | - | 0 W/m² | - |
| 1778033819 | 35° C | 49% | 1005 hPa | - | - | 0 W/m² | - |
| 1778032909 | 35° C | 50% | 1005 hPa | - | - | 0 W/m² | - |
| 1778031999 | 35° C | 50% | 1005 hPa | - | - | 0 W/m² | - |
| 1778031089 | 35° C | 50% | 1004 hPa | - | - | 0 W/m² | - |
| 1778030179 | 35° C | 51% | 1004 hPa | - | - | 0 W/m² | - |
| 1778029269 | 35° C | 51% | 1004 hPa | - | - | 0 W/m² | - |
| 1778028359 | 35° C | 51% | 1004 hPa | - | - | 0 W/m² | - |
| 1778027449 | 36.11° C | 48% | 1004 hPa | - | - | 0 W/m² | - |
| 1778026539 | 34.44° C | 52% | 1004 hPa | - | - | 0 W/m² | - |
| 1778024719 | 34.44° C | 51% | 1004 hPa | - | - | 0 W/m² | - |
| 1778022899 | 34.44° C | 48% | 1003 hPa | - | - | 0 W/m² | - |
* Rain since midnight (hover to see other rain measurements)
** Current wind speed in m/s (hover to see current wind gust speed)